When you browse on this site, cookies collect data to enhance your experience and personalize the content and advertising you see.
Visit our Privacy Policy to learn more. By continuing to use the site, you agree to this use of cookies and data.
  • In Österreich
  • Länderverzeichnis
  • Für 7 Tage
  • Wassertemperatur
  • Wetterkarte
  • News
  • Widgets
  • user-avatar
    Anmelden

    Stündliche Wetter Novaya Derevnya

    Heute, 20 August, Dienstag

    Zeit Temperatur Niederschläge Wind Luftdruck Luftfeuchtigkeit
    00:00 +17°C° 0 mm 2 m/S 744 mmHg 96%
    01:00 +16°C° 0 mm 2 m/S 744 mmHg 96%
    02:00 +16°C° 0 mm 2 m/S 744 mmHg 96%
    03:00 +16°C° 0 mm 2 m/S 744 mmHg 97%
    04:00 +16°C° 0 mm 2 m/S 744 mmHg 97%
    05:00 +16°C° 0 mm 1 m/S 744 mmHg 97%
    06:00 +17°C° 0.3 mm 2 m/S 745 mmHg 94%
    07:00 +19°C° 0.3 mm 2 m/S 745 mmHg 91%
    08:00 +20°C° 0.3 mm 2 m/S 745 mmHg 88%
    09:00 +20°C° 0.2 mm 2 m/S 745 mmHg 88%
    10:00 +21°C° 0.2 mm 2 m/S 745 mmHg 88%
    11:00 +21°C° 0.2 mm 2 m/S 745 mmHg 88%
    12:00 +22°C° 0.1 mm 1 m/S 746 mmHg 89%
    13:00 +22°C° 0.1 mm 1 m/S 746 mmHg 89%
    14:00 +22°C° 0.1 mm 1 m/S 746 mmHg 89%
    15:00 +21°C° 0.1 mm 0 m/S 746 mmHg 86%
    16:00 +21°C° 0.1 mm 0 m/S 746 mmHg 83%
    17:00 +22°C° 0.1 mm 0 m/S 746 mmHg 80%
    18:00 +21°C° 0.1 mm 0 m/S 746 mmHg 85%
    19:00 +19°C° 0.1 mm 0 m/S 746 mmHg 90%
    20:00 +18°C° 0.1 mm 0 m/S 746 mmHg 95%
    21:00 +17°C° 0.1 mm 0 m/S 747 mmHg 95%
    22:00 +17°C° 0.1 mm 0 m/S 747 mmHg 96%
    23:00 +18°C° 0.1 mm 1 m/S 747 mmHg 96%

    Morgen, 21 August, Mittwoch

    Zeit Temperatur Niederschläge Wind Luftdruck Luftfeuchtigkeit
    00:00 +18°C° 0 mm 1 m/S 747 mmHg 97%
    01:00 +18°C° 0 mm 1 m/S 747 mmHg 97%
    02:00 +18°C° 0 mm 1 m/S 747 mmHg 97%
    03:00 +18°C° 0 mm 1 m/S 747 mmHg 98%
    04:00 +18°C° 0 mm 1 m/S 747 mmHg 98%
    05:00 +16°C° 0 mm 1 m/S 747 mmHg 98%
    06:00 +17°C° 0 mm 2 m/S 747 mmHg 96%
    07:00 +18°C° 0 mm 2 m/S 747 mmHg 94%
    08:00 +19°C° 0 mm 2 m/S 747 mmHg 92%
    09:00 +20°C° 0.1 mm 2 m/S 747 mmHg 91%
    10:00 +21°C° 0.1 mm 2 m/S 747 mmHg 89%
    11:00 +23°C° 0.1 mm 2 m/S 747 mmHg 87%
    12:00 +23°C° 0.1 mm 2 m/S 747 mmHg 84%
    13:00 +24°C° 0.1 mm 2 m/S 747 mmHg 81%
    14:00 +25°C° 0.1 mm 2 m/S 746 mmHg 78%
    15:00 +25°C° 1.4 mm 2 m/S 746 mmHg 82%
    16:00 +24°C° 1.4 mm 2 m/S 745 mmHg 85%
    17:00 +24°C° 1.4 mm 2 m/S 745 mmHg 89%
    18:00 +23°C° 1.2 mm 2 m/S 745 mmHg 90%
    19:00 +21°C° 1.2 mm 2 m/S 744 mmHg 92%
    20:00 +20°C° 1.2 mm 3 m/S 744 mmHg 94%
    21:00 +20°C° 0.5 mm 3 m/S 744 mmHg 95%
    22:00 +20°C° 0.5 mm 2 m/S 744 mmHg 96%
    23:00 +19°C° 0.5 mm 2 m/S 744 mmHg 97%

    übermorgen, 22 August, Donnerstag

    Zeit Temperatur Niederschläge Wind Luftdruck Luftfeuchtigkeit
    00:00 +19°C° 0.4 mm 2 m/S 744 mmHg 97%
    01:00 +19°C° 0.4 mm 2 m/S 744 mmHg 97%
    02:00 +19°C° 0.4 mm 2 m/S 744 mmHg 98%
    03:00 +18°C° 0.6 mm 3 m/S 744 mmHg 97%
    04:00 +17°C° 0.6 mm 3 m/S 744 mmHg 97%
    05:00 +16°C° 0.6 mm 3 m/S 745 mmHg 96%
    06:00 +16°C° 0 mm 3 m/S 745 mmHg 94%
    07:00 +15°C° 0 mm 4 m/S 746 mmHg 93%
    08:00 +14°C° 0 mm 4 m/S 746 mmHg 91%
    09:00 +17°C° 0 mm 4 m/S 747 mmHg 84%
    10:00 +18°C° 0 mm 3 m/S 747 mmHg 76%
    11:00 +20°C° 0 mm 3 m/S 747 mmHg 69%
    12:00 +20°C° 0 mm 3 m/S 747 mmHg 65%
    13:00 +21°C° 0 mm 3 m/S 747 mmHg 62%
    14:00 +22°C° 0 mm 3 m/S 747 mmHg 59%
    15:00 +21°C° 0 mm 2 m/S 747 mmHg 62%
    16:00 +21°C° 0 mm 2 m/S 747 mmHg 65%
    17:00 +21°C° 0 mm 2 m/S 748 mmHg 69%
    18:00 +19°C° 0 mm 2 m/S 748 mmHg 74%
    19:00 +17°C° 0 mm 2 m/S 748 mmHg 79%
    20:00 +15°C° 0 mm 2 m/S 748 mmHg 85%
    21:00 +14°C° 0 mm 1 m/S 748 mmHg 85%
    22:00 +13°C° 0 mm 1 m/S 748 mmHg 86%
    23:00 +12°C° 0 mm 1 m/S 749 mmHg 87%

    23 August, Freitag

    Zeit Temperatur Niederschläge Wind Luftdruck Luftfeuchtigkeit
    00:00 +12°C° 0 mm 1 m/S 749 mmHg 88%
    01:00 +12°C° 0 mm 1 m/S 749 mmHg 89%
    02:00 +11°C° 0 mm 1 m/S 749 mmHg 90%
    03:00 +11°C° 0 mm 1 m/S 749 mmHg 91%
    04:00 +11°C° 0 mm 1 m/S 749 mmHg 92%
    05:00 +11°C° 0 mm 1 m/S 749 mmHg 92%
    06:00 +13°C° 0 mm 1 m/S 749 mmHg 86%
    07:00 +15°C° 0 mm 1 m/S 749 mmHg 79%
    08:00 +18°C° 0 mm 1 m/S 749 mmHg 72%
    09:00 +19°C° 0 mm 1 m/S 749 mmHg 67%
    10:00 +21°C° 0 mm 1 m/S 749 mmHg 62%
    11:00 +21°C° 0 mm 2 m/S 749 mmHg 57%
    12:00 +21°C° 0.1 mm 2 m/S 749 mmHg 58%
    13:00 +21°C° 0.1 mm 2 m/S 749 mmHg 58%
    14:00 +21°C° 0.1 mm 3 m/S 749 mmHg 59%
    15:00 +21°C° 0.1 mm 2 m/S 749 mmHg 62%
    16:00 +21°C° 0.1 mm 2 m/S 749 mmHg 65%
    17:00 +21°C° 0.1 mm 1 m/S 749 mmHg 69%
    18:00 +19°C° 0 mm 1 m/S 749 mmHg 73%
    19:00 +16°C° 0 mm 1 m/S 749 mmHg 78%
    20:00 +14°C° 0 mm 1 m/S 749 mmHg 82%
    21:00 +13°C° 0 mm 1 m/S 749 mmHg 84%
    22:00 +13°C° 0 mm 1 m/S 749 mmHg 86%
    23:00 +11°C° 0 mm 0 m/S 749 mmHg 87%

    24 August, Samstag

    Zeit Temperatur Niederschläge Wind Luftdruck Luftfeuchtigkeit
    00:00 +12°C° 0 mm 1 m/S 749 mmHg 89%
    01:00 +12°C° 0 mm 1 m/S 749 mmHg 90%
    02:00 +12°C° 0 mm 1 m/S 749 mmHg 91%
    03:00 +12°C° 0 mm 1 m/S 749 mmHg 92%
    04:00 +12°C° 0 mm 1 m/S 749 mmHg 93%
    05:00 +11°C° 0 mm 1 m/S 749 mmHg 94%
    06:00 +13°C° 0 mm 1 m/S 749 mmHg 88%
    07:00 +15°C° 0 mm 2 m/S 750 mmHg 82%
    08:00 +17°C° 0 mm 2 m/S 750 mmHg 75%
    09:00 +18°C° 0 mm 2 m/S 750 mmHg 69%
    10:00 +20°C° 0 mm 2 m/S 749 mmHg 63%
    11:00 +21°C° 0 mm 3 m/S 749 mmHg 56%
    12:00 +21°C° 0 mm 3 m/S 749 mmHg 55%
    13:00 +22°C° 0 mm 3 m/S 749 mmHg 54%
    14:00 +22°C° 0 mm 3 m/S 748 mmHg 53%
    15:00 +22°C° 0 mm 3 m/S 748 mmHg 58%
    16:00 +21°C° 0 mm 2 m/S 748 mmHg 63%
    17:00 +21°C° 0 mm 2 m/S 748 mmHg 68%
    18:00 +19°C° 0 mm 2 m/S 748 mmHg 74%
    19:00 +18°C° 0 mm 2 m/S 748 mmHg 81%
    20:00 +16°C° 0 mm 2 m/S 747 mmHg 87%
    21:00 +15°C° 0 mm 2 m/S 747 mmHg 89%
    22:00 +15°C° 0 mm 2 m/S 747 mmHg 92%
    23:00 +15°C° 0 mm 2 m/S 747 mmHg 94%

    25 August, Sonntag

    Zeit Temperatur Niederschläge Wind Luftdruck Luftfeuchtigkeit
    00:00 +14°C° 0 mm 3 m/S 747 mmHg 94%
    01:00 +13°C° 0 mm 3 m/S 747 mmHg 95%
    02:00 +13°C° 0 mm 3 m/S 747 mmHg 95%
    03:00 +13°C° 0 mm 3 m/S 747 mmHg 95%
    04:00 +13°C° 0 mm 3 m/S 747 mmHg 96%
    05:00 +13°C° 0 mm 3 m/S 747 mmHg 96%
    06:00 +14°C° 0 mm 3 m/S 747 mmHg 91%
    07:00 +16°C° 0 mm 3 m/S 747 mmHg 87%
    08:00 +18°C° 0 mm 3 m/S 747 mmHg 82%
    09:00 +19°C° 0 mm 3 m/S 746 mmHg 76%
    10:00 +20°C° 0 mm 4 m/S 746 mmHg 69%
    11:00 +22°C° 0 mm 4 m/S 746 mmHg 63%
    12:00 +21°C° 0.1 mm 4 m/S 746 mmHg 65%
    13:00 +21°C° 0.1 mm 4 m/S 746 mmHg 67%
    14:00 +21°C° 0.1 mm 4 m/S 746 mmHg 68%
    15:00 +21°C° 0 mm 3 m/S 746 mmHg 70%
    16:00 +20°C° 0 mm 3 m/S 746 mmHg 72%
    17:00 +20°C° 0 mm 2 m/S 746 mmHg 74%
    18:00 +19°C° 0 mm 2 m/S 746 mmHg 81%
    19:00 +17°C° 0 mm 2 m/S 746 mmHg 87%
    20:00 +15°C° 0 mm 1 m/S 746 mmHg 94%
    21:00 +14°C° 0 mm 1 m/S 746 mmHg 94%
    22:00 +14°C° 0 mm 1 m/S 747 mmHg 94%
    23:00 +13°C° 0 mm 1 m/S 747 mmHg 94%
    Mehr zeigen